Location: Unspecified
(0.0000°N, 0.0000°E)
Time: 02:49:30
(UTC+00:00)

deb r/b Ablestar - Pass Details

Date: 11 March 2026
Orbit: 937 x 1853 km, 67.2° (Epoch: 12 April)

Event Time Altitude Azimuth Distance (km) Brightness Sun altitude
Rises 20:09:23 0° 334° (NNW) 5,111 ? -29.8°
Reaches altitude 10° 20:12:35 10° 331° (NNW) 4,167 ? -30.6°
Maximum altitude 20:23:20 65° 252° (WSW) 1,982 ? -33.3°
Drops below altitude 10° 20:33:41 10° 172° (S) 4,007 ? -35.9°
Sets 20:36:43 0° 169° (SSE) 4,907 ? -36.6°
